ヒル彗星

P/2014 A2 ( Hill )

English version
Home page
Updated on May 7, 2015

---------------------------------------------------------------------

・ プロフィール

発見日 2014年1月9日
発見光度 18.5等
発見者 R. E. Hill (Catalina Sky Survey)

・ 写真集

・ 軌道要素

Epoch 2013 Nov. 4.0 TT = JDT 2456600.5
T 2013 Oct. 28.36321 TT                                 MPC
q   2.0747052            (2000.0)            P               Q
n   0.06831020     Peri.  356.23660     -0.22906104     -0.88856854
a   5.9266916      Node   106.67183     +0.90357113     -0.34596936
e   0.6499387      Incl.   24.51329     +0.36206388     +0.30124932
P  14.4
From 107 observations 2013 Nov. 9-2014 Mar. 7, mean residual 0".5.

・ 光度変化

        m1 = 15.0 + 5 logΔ + 10.0 log r

---------------------------------------------------------------------

軌道要素はM.P.E.C. 2014-R69に掲載されたものです。
光度グラフはComet for Windowsで作成したものです。

---------------------------------------------------------------------

Copyright(C) Seiichi Yoshida (comet@aerith.net). All rights reserved.